Regional Weather Roundup
Issued by NWS

Home | Current Version | Previous Version | Graphics & Text | Print | Product List | Glossary On
Versions: 1 2 3 4 5 6 7 8 9 10 11 12 13 14 15 16 17 18 19 20 21 22 23 24 25 26 27
000
ASUS45 KBOU 271807
RWRCO

WEATHER ROUNDUP FOR COLORADO
NATIONAL WEATHER SERVICE DENVER/BOULDER CO
1200 PM MDT THU APR 27 2017

NOTE: "FAIR" INDICATES FEW OR NO CLOUDS BELOW 12000 FEET WITH NO
SIGNIFICANT WEATHER AND/OR OBSTRUCTIONS TO VISIBILITY.

COZ001>005-013-030-031-271900-
...NORTHWEST COLORADO...

CITY           SKY/WX    TMP DP  RH WIND       PRES   REMARKS
CRAIG          CLOUDY    42  23  46 W15G25    29.67S
HAYDEN         PTSUNNY   34  27  75 S12       29.67F WCI  25
MEEKER         CLOUDY    37  34  89 CALM      29.69S
MOUNT WERNER   NOT AVBL
STEAMBOAT SPGS CLOUDY    33  21  61 S6        29.67S WCI  28
WALDEN           N/A     37  25  60 NW14      29.63S
$$

COZ006>008-011-271900-
...WEST CENTRAL VALLEYS...

CITY           SKY/WX    TMP DP  RH WIND       PRES   REMARKS
GRAND JUNCTION CLOUDY    48  33  56 N23G33    29.64F
MONTROSE       FAIR      51  35  54 N15       29.67F
EAGLE          PTSUNNY   45  32  61 W13G30    29.64F
RIFLE          LGT RAIN  53  31  42 W21G28    29.63F
DELTA          FAIR      56  35  44 SW13G21   29.65F
NUCLA          FAIR      55  21  26 W20G26    29.72F
$$

COZ017>023-064>068-271900-
...SOUTHWEST COLORADO...

CITY           SKY/WX    TMP DP  RH WIND       PRES   REMARKS
DURANGO        CLOUDY    48  35  60 NW23G30   29.71R
CORTEZ         PTSUNNY   49  36  61 NW16G22   29.74F
PAGOSA SPRINGS CLOUDY    39  37  91 W5        29.72S
TELLURIDE      CLOUDY    32  27  81 CALM      29.80R
WOLF CREEK PAS SNOW      27  27 100 SW8G17    29.79F VSB 1/4 WCI  18
$$

COZ009-010-012-014-032>034-037-058>063-271900-
...CENTRAL COLORADO...

CITY           SKY/WX    TMP DP  RH WIND       PRES   REMARKS
ASPEN          PTSUNNY   41  30  65 N16G26    29.63F
BUENA VISTA    PTSUNNY   48  21  33 W20G26    29.59F
COPPER MTN     LGT SNOW  27  19  74 W13G25    29.67F VSB 3/4 WCI  16
BERTHOUD PASS  CLOUDY    18   5  57 MISG      29.62F
COTTONWOOD PAS PTSUNNY   41  16  36 SW12G26   29.65R
GUNNISON       FAIR      40  26  57 W9G24     29.69R
KREMMLING      CLOUDY    41  28  60 NW12G18   29.65F
LEADVILLE      FAIR      32  15  49 W22G30    29.62F WCI  19
SALIDA         FAIR      52  20  28 W26G37    29.68S
SUNLIGHT       LGT SNOW  27  21  80 MISG      29.72F
WILKERSON PASS CLOUDY    30  25  80 SW14G21   29.66F WCI  20
$$

COZ069>075-271900-
...SAN LUIS VALLEY/SANGRE DE CRISTO MOUNTAINS...

CITY           SKY/WX    TMP DP  RH WIND       PRES   REMARKS
ALAMOSA        LGT RAIN  45  25  45 NW15G28   29.65R
LA VETA PASS   CLOUDY    34  21  60 SW18G31   29.78F WCI  23
SAGUACHE       CLOUDY    46  18  31 NW41G51   29.65R
$$

COZ035-036-038>040-271900-
...NORTHERN COLORADO FRONT RANGE...

CITY           SKY/WX    TMP DP  RH WIND       PRES   REMARKS
DENVER INTL AP PTSUNNY   49  36  61 NW12      29.53S
DMNS CITY PARK   N/A     47  35  64 N8G20     29.53F
AURORA         PTSUNNY   47  35  63 NW15      29.54S
FRONT RANGE AP CLOUDY    52  37  58 N12G20    29.53F
ERIE MUNI ARPT RAIN      45  37  73 N6        29.55R
BOULDER MUN AP CLOUDY    45  39  81 NE7       29.54F
CENTENNIAL     PTSUNNY   49  35  58 N21       29.52S
BROOMFIELD     LGT RAIN  43  39  87 NW14      29.55R
FORT COLLINS   FAIR      48  36  63 N7        29.56S
LONGMONT       LGT RAIN  47  40  76 NW5       29.57R
$$

COZ041-046-047-076>085-087-088-271900-
...PIKES PEAK/PALMER DIVIDE AND SOUTHERN FOOTHILLS...

CITY           SKY/WX    TMP DP  RH WIND       PRES   REMARKS
COLO. SPRINGS  PTSUNNY   53  31  42 E9        29.52F
A. F. ACADEMY  FAIR      52  29  40 VRB3      29.51F
SCHRIEVER AFB  FAIR      52  30  42 E7        29.51F
ELLICOTT       NOT AVBL
FALCON         LGT RAIN  47  33  58 SE3       29.54F
FORT CARSON    FAIR      51  35  54 SW6       29.52F
LIMON          PTSUNNY   55  31  39 CALM      29.50F
MONUMENT HILL  FAIR      48  28  46 CALM      29.54F
TRINIDAD       FAIR      60  32  34 W12G20    29.53F
$$

COZ042>045-048>051-090-091-271900-
...NORTHEAST COLORADO...

CITY           SKY/WX    TMP DP  RH WIND       PRES   REMARKS
GREELEY ARPT   PTSUNNY   50  39  66 NE5       29.54S
AKRON          FAIR      54  39  57 E10       29.51F
BURLINGTON     NOT AVBL
WRAY           NOT AVBL
STERLING       PTSUNNY   50  43  76 NE17G23   29.51F
HOLYOKE        FAIR      55  37  50 SE14G21   29.56F
FORT MORGAN    CLOUDY    54  38  55 E7        29.53S
$$

COZ086-089-092>099-271900-
...SOUTHEAST COLORADO...

CITY           SKY/WX    TMP DP  RH WIND       PRES   REMARKS
PUEBLO         FAIR      59  36  42 SW7       29.48F
LA JUNTA       FAIR      59  41  51 W10       29.48F
LAMAR          FAIR      63  37  38 CALM      29.45F
SPRINGFIELD      N/A     62  39  42 VRB5      29.48F
$$




USA.gov is the U.S. government's official web portal to all federal, state and local government web resources and services.